Weather History for Durango, CO

Change the Weather History Date:

Tuesday, November 20, 2012

  Actual Average Record
Temperature  
Mean Temperature 38 °F 34 °F  
Max Temperature 57 °F 47 °F 69 °F (1989)
Min Temperature 19 °F 21 °F 2 °F (1985)
Degree Days  
Heating Degree Days 27 31  
Month to date heating degree days 520 554  
Since 1 July heating degree days 1168 1342  
Cooling Degree Days 0 0  
Month to date cooling degree days 0 0  
Year to date cooling degree days 477 243  
Moisture  
Dew Point 21 °F    
Average Humidity 56    
Maximum Humidity 92    
Minimum Humidity 19    
Precipitation  
Precipitation 0.00 in 0.06 in 0.51 in (2004)
Month to date precipitation 1.10 1.17  
Year to date precipitation 6.91 14.39  
Sea Level Pressure  
Sea Level Pressure 30.36 in    
Wind  
Wind Speed 3 mph (North)    
Max Wind Speed 13 mph    
Max Gust Speed 15 mph    
Visibility 10 miles    
Events      
T = Trace of Precipitation, MM = Missing Value Source: NWS Daily Summary

Daily Weather History Graph

Daily Weather History Graph

Search for Another Location

Airport:

Trip Planner

Search our weather history database for the weather conditions in past years. The results will help you decide how hot, cold, wet, or windy it might be!

Date:

Astronomy

Nov. 20, 2012 Rise Set
Actual Time 6:55 AM MST 4:57 PM MST
Civil Twilight 6:27 AM MST 5:25 PM MST
Nautical Twilight 5:55 AM MST 5:57 PM MST
Astronomical Twilight 5:24 AM MST 6:28 PM MST
Moon 12:36 PM MST (11/20) No Moon Set
Length of Visible Light 10h 58m
Length of Day
10h 01m
First Quarter, 52% of the Moon is Illuminated
Nov 20
First Quarter
Nov 28
Full
Dec 6
Last Quarter
Dec 13
New
Dec 19
First Quarter

Hourly Weather History & Observations

Time (MST) Temp. Windchill Dew Point Humidity Pressure Visibility Wind Dir Wind Speed Gust Speed Precip Events Conditions
12:53 AM 26.1 °F 19.4 °F 21.9 °F 84% 30.37 in 10.0 mi NNE 5.8 mph - N/A   Clear
1:53 AM 26.1 °F 20.5 °F 21.9 °F 84% 30.37 in 10.0 mi NNE 4.6 mph - N/A   Clear
2:53 AM 21.9 °F 15.7 °F 19.0 °F 89% 30.39 in 10.0 mi ENE 4.6 mph - N/A   Clear
3:53 AM 23.0 °F - 19.9 °F 88% 30.39 in 10.0 mi Calm Calm - N/A   Clear
4:53 AM 24.1 °F 18.2 °F 21.0 °F 88% 30.40 in 10.0 mi NNE 4.6 mph - N/A   Clear
5:53 AM 24.1 °F - 21.9 °F 91% 30.42 in 10.0 mi Calm Calm - N/A   Clear
6:53 AM 21.9 °F - 19.0 °F 89% 30.46 in 10.0 mi Calm Calm - N/A   Clear
7:53 AM 26.1 °F - 23.0 °F 88% 30.49 in 10.0 mi Calm Calm - N/A   Clear
8:53 AM 34.0 °F - 26.1 °F 73% 30.46 in 10.0 mi Calm Calm - N/A   Clear
9:53 AM 41.0 °F 39.0 °F 27.0 °F 57% 30.43 in 10.0 mi East 3.5 mph - N/A   Clear
10:53 AM 46.9 °F - 27.0 °F 46% 30.39 in 10.0 mi Calm Calm - N/A   Clear
11:53 AM 52.0 °F - 23.0 °F 32% 30.34 in 10.0 mi Calm Calm - N/A   Clear
12:53 PM 54.0 °F - 19.9 °F 26% 30.29 in 10.0 mi Calm Calm - N/A   Clear
1:53 PM 55.9 °F - 16.0 °F 21% 30.26 in 10.0 mi West 9.2 mph - N/A   Clear
2:53 PM 57.0 °F - 15.1 °F 19% 30.26 in 10.0 mi SSW 5.8 mph - N/A   Clear
3:53 PM 55.0 °F - 21.9 °F 28% 30.27 in 10.0 mi WSW 9.2 mph - N/A   Clear
4:53 PM 51.1 °F - 19.9 °F 29% 30.28 in 10.0 mi WSW 4.6 mph - N/A   Clear
5:53 PM 46.0 °F 43.9 °F 19.9 °F 35% 30.33 in 10.0 mi SW 4.6 mph - N/A   Clear
6:53 PM 39.9 °F 33.4 °F 21.9 °F 49% 30.37 in 10.0 mi North 10.4 mph - N/A   Clear
7:53 PM 35.1 °F 32.2 °F 21.0 °F 57% 30.38 in 10.0 mi ENE 3.5 mph - N/A   Clear
8:53 PM 34.0 °F - 21.0 °F 59% 30.35 in 10.0 mi Calm Calm - N/A   Clear
9:53 PM 34.0 °F - 21.9 °F 61% 30.31 in 10.0 mi Calm Calm - N/A   Clear
10:53 PM 26.1 °F - 19.9 °F 78% 30.31 in 10.0 mi Calm Calm - N/A   Clear
11:53 PM 28.9 °F - 21.0 °F 72% 30.27 in 10.0 mi Calm Calm - N/A   Clear